Torna al catalogo

FENGYUN 1C DEB

AttivoSSO
NORAD 30037·DEBRIS·🇨🇳 China

Lanciato May 10, 1999 da Taiyuan Satellite Launch Center

Loading…

Prossimi Passaggi (prossime 24 ore)

TLE

AggiornatoSource: Space-Track

Epoca: Sep 14, 2026, 09:45 UTC

1 30037U 99025NN  26257.40635228  .00000356  00000-0  12195-3 0  9995
2 30037  98.4163 230.5571 0171930 314.5489 202.0200 14.34431161 27399

Traccia FENGYUN 1C DEB in tempo reale con AllMySat

Download on the App Store